M I D A S
Marine Information and Data Acquisition System
Tripno 1752 of the Zeeleeuw from 2009-08-21 06:43:00 to 2009-08-21 13:53:53
Back to CruiseResearch ActivitiesStationsMapUnderway DataData graphs

EquipmentUnitsComment
TimeDGPSUTC
LatitudeDGPSDM.mWGS84
LongitudeDGPSDM.mWGS84
TemperatureSBE03/SBE38deg celciusITS90
ConductivitySBE21S/mITS90
SalinitySBE21 Practical Salinity Units
ChlorophylAChelsea fluorimeterg/lCalibrated in Aceton
Missing or incorrect values are displayed as -999
Sea surface data collected by the RV Zeeleeuw from 2009-08-21 06:43:00 to 2009-08-21 13:53:53
                                                                                    Next 1000 lines
Time Latitude Longitude Temperature Conductivity Salinity ChlorophylA
2009-08-21 06:43:20 51°13.689 2°55.906 -999 -999 -999 -999
2009-08-21 06:43:30 51°13.689 2°55.906 -999 -999 -999 -999
2009-08-21 06:43:40 51°13.689 2°55.906 -999 -999 -999 -999
2009-08-21 06:43:50 51°13.689 2°55.906 -999 -999 -999 -999
2009-08-21 06:44:00 51°13.689 2°55.906 -999 -999 -999 -999
2009-08-21 06:44:10 51°13.689 2°55.906 -999 -999 -999 -999
2009-08-21 06:44:20 51°13.689 2°55.906 -999 -999 -999 -999
2009-08-21 06:44:30 51°13.689 2°55.905 -999 -999 -999 -999
2009-08-21 06:44:40 51°13.689 2°55.905 -999 -999 -999 -999
2009-08-21 06:44:50 51°13.689 2°55.905 -999 -999 -999 -999
2009-08-21 06:45:00 51°13.688 2°55.905 -999 -999 -999 -999
2009-08-21 06:45:10 51°13.688 2°55.905 -999 -999 -999 -999
2009-08-21 06:45:20 51°13.688 2°55.905 -999 -999 -999 -999
2009-08-21 06:45:30 51°13.688 2°55.905 -999 -999 -999 -999
2009-08-21 06:45:40 51°13.686 2°55.905 -999 -999 -999 -999
2009-08-21 06:45:50 51°13.686 2°55.905 -999 -999 -999 -999
2009-08-21 06:46:00 51°13.686 2°55.905 -999 -999 -999 -999
2009-08-21 06:46:10 51°13.686 2°55.905 -999 -999 -999 -999
2009-08-21 06:46:20 51°13.686 2°55.905 -999 -999 -999 -999
2009-08-21 06:46:30 51°13.687 2°55.904 -999 -999 -999 -999
2009-08-21 06:46:40 51°13.687 2°55.901 -999 -999 -999 -999
2009-08-21 06:46:50 51°13.688 2°55.896 -999 -999 -999 -999
2009-08-21 06:47:00 51°13.69 2°55.887 -999 -999 -999 -999
2009-08-21 06:47:10 51°13.692 2°55.876 -999 -999 -999 -999
2009-08-21 06:47:20 51°13.695 2°55.863 -999 -999 -999 -999
2009-08-21 06:47:30 51°13.698 2°55.849 -999 -999 -999 -999
2009-08-21 06:47:40 51°13.7 2°55.833 -999 -999 -999 -999
2009-08-21 06:47:50 51°13.702 2°55.816 -999 -999 -999 -999
2009-08-21 06:48:00 51°13.704 2°55.799 -999 -999 -999 -999
2009-08-21 06:48:10 51°13.705 2°55.783 -999 -999 -999 -999
2009-08-21 06:48:20 51°13.706 2°55.769 -999 -999 -999 -999
2009-08-21 06:48:30 51°13.707 2°55.756 -999 -999 -999 -999
2009-08-21 06:48:40 51°13.708 2°55.746 -999 -999 -999 -999
2009-08-21 06:48:50 51°13.708 2°55.739 -999 -999 -999 -999
2009-08-21 06:49:00 51°13.709 2°55.733 -999 -999 -999 -999
2009-08-21 06:49:10 51°13.709 2°55.73 -999 -999 -999 -999
2009-08-21 06:49:20 51°13.711 2°55.728 -999 -999 -999 -999
2009-08-21 06:49:30 51°13.713 2°55.728 -999 -999 -999 -999
2009-08-21 06:49:40 51°13.715 2°55.73 -999 -999 -999 -999
2009-08-21 06:49:50 51°13.718 2°55.731 -999 -999 -999 -999
2009-08-21 06:50:00 51°13.721 2°55.732 -999 -999 -999 -999
2009-08-21 06:50:10 51°13.727 2°55.733 -999 -999 -999 -999
2009-08-21 06:50:20 51°13.734 2°55.731 -999 -999 -999 -999
2009-08-21 06:50:30 51°13.743 2°55.725 -999 -999 -999 -999
2009-08-21 06:50:40 51°13.752 2°55.716 -999 -999 -999 -999
2009-08-21 06:50:50 51°13.764 2°55.704 -999 -999 -999 -999
2009-08-21 06:51:00 51°13.777 2°55.691 -999 -999 -999 -999
2009-08-21 06:51:10 51°13.791 2°55.676 -999 -999 -999 -999
2009-08-21 06:51:20 51°13.808 2°55.661 -999 -999 -999 -999
2009-08-21 06:51:30 51°13.826 2°55.645 -999 -999 -999 -999
2009-08-21 06:51:40 51°13.845 2°55.629 -999 -999 -999 -999
2009-08-21 06:51:50 51°13.864 2°55.613 -999 -999 -999 -999
2009-08-21 06:52:00 51°13.884 2°55.597 -999 -999 -999 -999
2009-08-21 06:52:10 51°13.905 2°55.581 -999 -999 -999 -999
2009-08-21 06:52:20 51°13.925 2°55.563 -999 -999 -999 -999
2009-08-21 06:52:30 51°13.946 2°55.547 -999 -999 -999 -999
2009-08-21 06:52:40 51°13.967 2°55.531 -999 -999 -999 -999
2009-08-21 06:52:50 51°13.989 2°55.515 -999 -999 -999 -999
2009-08-21 06:53:00 51°14.01 2°55.499 -999 -999 -999 -999
2009-08-21 06:53:10 51°14.032 2°55.483 -999 -999 -999 -999
2009-08-21 06:53:20 51°14.054 2°55.467 -999 -999 -999 -999
2009-08-21 06:53:30 51°14.075 2°55.449 -999 -999 -999 -999
2009-08-21 06:53:40 51°14.097 2°55.431 -999 -999 -999 -999
2009-08-21 06:53:50 51°14.118 2°55.413 -999 -999 -999 -999
2009-08-21 06:54:00 51°14.14 2°55.395 -999 -999 -999 -999
2009-08-21 06:54:10 51°14.162 2°55.375 -999 -999 -999 -999
2009-08-21 06:54:20 51°14.183 2°55.355 -999 -999 -999 -999
2009-08-21 06:54:30 51°14.203 2°55.332 -999 -999 -999 -999
2009-08-21 06:54:40 51°14.222 2°55.307 -999 -999 -999 -999
2009-08-21 06:54:50 51°14.24 2°55.28 -999 -999 -999 -999
2009-08-21 06:55:00 51°14.258 2°55.251 -999 -999 -999 -999
2009-08-21 06:55:10 51°14.276 2°55.22 -999 -999 -999 -999
2009-08-21 06:55:20 51°14.294 2°55.188 -999 -999 -999 -999
2009-08-21 06:55:30 51°14.313 2°55.155 -999 -999 -999 -999
2009-08-21 06:55:40 51°14.332 2°55.124 -999 -999 -999 -999
2009-08-21 06:55:50 51°14.352 2°55.092 -999 -999 -999 -999
2009-08-21 06:56:00 51°14.371 2°55.059 -999 -999 -999 -999
2009-08-21 06:56:10 51°14.391 2°55.027 -999 -999 -999 -999
2009-08-21 06:56:20 51°14.412 2°54.999 -999 -999 -999 -999
2009-08-21 06:56:30 51°14.434 2°54.971 -999 -999 -999 -999
2009-08-21 06:56:40 51°14.456 2°54.944 -999 -999 -999 -999
2009-08-21 06:56:50 51°14.479 2°54.918 -999 -999 -999 -999
2009-08-21 06:57:00 51°14.501 2°54.889 -999 -999 -999 -999
2009-08-21 06:57:10 51°14.522 2°54.86 -999 -999 -999 -999
2009-08-21 06:57:20 51°14.545 2°54.834 -999 -999 -999 -999
2009-08-21 06:57:30 51°14.568 2°54.811 -999 -999 -999 -999
2009-08-21 06:57:40 51°14.592 2°54.787 -999 -999 -999 -999
2009-08-21 06:57:50 51°14.615 2°54.763 -999 -999 -999 -999
2009-08-21 06:58:00 51°14.638 2°54.739 -999 -999 -999 -999
2009-08-21 06:58:10 51°14.662 2°54.715 -999 -999 -999 -999
2009-08-21 06:58:20 51°14.685 2°54.69 -999 -999 -999 -999
2009-08-21 06:58:30 51°14.708 2°54.667 -999 -999 -999 -999
2009-08-21 06:58:40 51°14.731 2°54.643 -999 -999 -999 -999
2009-08-21 06:58:50 51°14.755 2°54.62 -999 -999 -999 -999
2009-08-21 06:59:00 51°14.778 2°54.597 -999 -999 -999 -999
2009-08-21 06:59:10 51°14.802 2°54.574 -999 -999 -999 -999
2009-08-21 06:59:20 51°14.825 2°54.551 -999 -999 -999 -999
2009-08-21 06:59:30 51°14.849 2°54.528 -999 -999 -999 -999
2009-08-21 06:59:40 51°14.872 2°54.506 -999 -999 -999 -999
2009-08-21 06:59:50 51°14.895 2°54.483 -999 -999 -999 -999
2009-08-21 07:00:00 51°14.918 2°54.461 -999 -999 -999 -999
2009-08-21 07:00:10 51°14.942 2°54.439 -999 -999 -999 -999
2009-08-21 07:00:20 51°14.965 2°54.417 -999 -999 -999 -999
2009-08-21 07:00:30 51°14.988 2°54.395 -999 -999 -999 -999
2009-08-21 07:00:40 51°15.012 2°54.374 -999 -999 -999 -999
2009-08-21 07:00:50 51°15.036 2°54.353 -999 -999 -999 -999
2009-08-21 07:01:00 51°15.059 2°54.331 -999 -999 -999 -999
2009-08-21 07:01:10 51°15.083 2°54.309 -999 -999 -999 -999
2009-08-21 07:01:20 51°15.106 2°54.286 -999 -999 -999 -999
2009-08-21 07:01:30 51°15.13 2°54.264 -999 -999 -999 -999
2009-08-21 07:01:40 51°15.153 2°54.242 -999 -999 -999 -999
2009-08-21 07:01:50 51°15.177 2°54.219 -999 -999 -999 -999
2009-08-21 07:02:00 51°15.2 2°54.197 -999 -999 -999 -999
2009-08-21 07:02:10 51°15.224 2°54.175 -999 -999 -999 -999
2009-08-21 07:02:20 51°15.247 2°54.153 -999 -999 -999 -999
2009-08-21 07:02:30 51°15.271 2°54.131 -999 -999 -999 -999
2009-08-21 07:02:40 51°15.295 2°54.109 -999 -999 -999 -999
2009-08-21 07:02:50 51°15.318 2°54.087 -999 -999 -999 -999
2009-08-21 07:03:00 51°15.341 2°54.064 -999 -999 -999 -999
2009-08-21 07:03:10 51°15.365 2°54.042 -999 -999 -999 -999
2009-08-21 07:03:20 51°15.389 2°54.02 -999 -999 -999 -999
2009-08-21 07:03:30 51°15.412 2°53.998 -999 -999 -999 -999
2009-08-21 07:03:40 51°15.438 2°53.973 -999 -999 -999 -999
2009-08-21 07:03:50 51°15.461 2°53.95 -999 -999 -999 -999
2009-08-21 07:04:00 51°15.485 2°53.927 -999 -999 -999 -999
2009-08-21 07:04:10 51°15.508 2°53.904 -999 -999 -999 -999
2009-08-21 07:04:20 51°15.531 2°53.881 -999 -999 -999 -999
2009-08-21 07:04:30 51°15.555 2°53.858 -999 -999 -999 -999
2009-08-21 07:04:40 51°15.578 2°53.836 -999 -999 -999 -999
2009-08-21 07:04:50 51°15.601 2°53.812 -999 -999 -999 -999
2009-08-21 07:05:00 51°15.625 2°53.789 -999 -999 -999 -999
2009-08-21 07:05:10 51°15.65 2°53.764 -999 -999 -999 -999
2009-08-21 07:05:20 51°15.676 2°53.739 -999 -999 -999 -999
2009-08-21 07:05:30 51°15.702 2°53.714 -999 -999 -999 -999
2009-08-21 07:05:40 51°15.729 2°53.688 -999 -999 -999 -999
2009-08-21 07:05:50 51°15.755 2°53.662 -999 -999 -999 -999
2009-08-21 07:06:00 51°15.782 2°53.636 -999 -999 -999 -999
2009-08-21 07:06:10 51°15.809 2°53.61 -999 -999 -999 -999
2009-08-21 07:06:20 51°15.835 2°53.583 -999 -999 -999 -999
2009-08-21 07:06:30 51°15.862 2°53.557 -999 -999 -999 -999
2009-08-21 07:06:40 51°15.886 2°53.533 -999 -999 -999 -999
2009-08-21 07:06:50 51°15.915 2°53.504 -999 -999 -999 -999
2009-08-21 07:07:00 51°15.939 2°53.48 -999 -999 -999 -999
2009-08-21 07:07:10 51°15.966 2°53.454 -999 -999 -999 -999
2009-08-21 07:07:20 51°15.992 2°53.427 -999 -999 -999 -999
2009-08-21 07:07:30 51°16.018 2°53.4 -999 -999 -999 -999
2009-08-21 07:07:40 51°16.045 2°53.373 -999 -999 -999 -999
2009-08-21 07:07:50 51°16.071 2°53.347 -999 -999 -999 -999
2009-08-21 07:08:00 51°16.098 2°53.321 -999 -999 -999 -999
2009-08-21 07:08:10 51°16.124 2°53.294 -999 -999 -999 -999
2009-08-21 07:08:20 51°16.151 2°53.267 -999 -999 -999 -999
2009-08-21 07:08:30 51°16.177 2°53.241 -999 -999 -999 -999
2009-08-21 07:08:40 51°16.207 2°53.212 -999 -999 -999 -999
2009-08-21 07:08:50 51°16.23 2°53.189 -999 -999 -999 -999
2009-08-21 07:09:00 51°16.257 2°53.162 -999 -999 -999 -999
2009-08-21 07:09:10 51°16.284 2°53.136 -999 -999 -999 -999
2009-08-21 07:09:20 51°16.31 2°53.109 -999 -999 -999 -999
2009-08-21 07:09:30 51°16.339 2°53.081 -999 -999 -999 -999
2009-08-21 07:09:40 51°16.365 2°53.054 -999 -999 -999 -999
2009-08-21 07:09:50 51°16.392 2°53.028 -999 -999 -999 -999
2009-08-21 07:10:00 51°16.418 2°53.001 -999 -999 -999 -999
2009-08-21 07:10:10 51°16.445 2°52.975 -999 -999 -999 -999
2009-08-21 07:10:20 51°16.471 2°52.948 -999 -999 -999 -999
2009-08-21 07:10:30 51°16.497 2°52.922 -999 -999 -999 -999
2009-08-21 07:10:40 51°16.523 2°52.896 -999 -999 -999 -999
2009-08-21 07:10:50 51°16.55 2°52.87 -999 -999 -999 -999
2009-08-21 07:11:00 51°16.576 2°52.844 -999 -999 -999 -999
2009-08-21 07:11:10 51°16.602 2°52.818 -999 -999 -999 -999
2009-08-21 07:11:20 51°16.629 2°52.794 -999 -999 -999 -999
2009-08-21 07:11:30 51°16.655 2°52.769 -999 -999 -999 -999
2009-08-21 07:11:40 51°16.679 2°52.747 -999 -999 -999 -999
2009-08-21 07:11:50 51°16.706 2°52.723 -999 -999 -999 -999
2009-08-21 07:12:00 51°16.732 2°52.699 -999 -999 -999 -999
2009-08-21 07:12:10 51°16.761 2°52.673 -999 -999 -999 -999
2009-08-21 07:12:20 51°16.784 2°52.652 -999 -999 -999 -999
2009-08-21 07:12:30 51°16.81 2°52.628 -999 -999 -999 -999
2009-08-21 07:12:40 51°16.838 2°52.6 -999 -999 -999 -999
2009-08-21 07:12:50 51°16.864 2°52.576 -999 -999 -999 -999
2009-08-21 07:13:00 51°16.89 2°52.552 -999 -999 -999 -999
2009-08-21 07:13:10 51°16.913 2°52.53 -999 -999 -999 -999
2009-08-21 07:13:20 51°16.939 2°52.505 -999 -999 -999 -999
2009-08-21 07:13:30 51°16.965 2°52.481 -999 -999 -999 -999
2009-08-21 07:13:40 51°16.99 2°52.456 -999 -999 -999 -999
2009-08-21 07:13:50 51°17.016 2°52.432 -999 -999 -999 -999
2009-08-21 07:14:00 51°17.042 2°52.411 -999 -999 -999 -999
2009-08-21 07:14:10 51°17.069 2°52.391 -999 -999 -999 -999
2009-08-21 07:14:20 51°17.096 2°52.372 -999 -999 -999 -999
2009-08-21 07:14:30 51°17.123 2°52.355 -999 -999 -999 -999
2009-08-21 07:14:40 51°17.15 2°52.338 -999 -999 -999 -999
2009-08-21 07:14:50 51°17.178 2°52.322 -999 -999 -999 -999
2009-08-21 07:15:00 51°17.205 2°52.306 -999 -999 -999 -999
2009-08-21 07:15:10 51°17.233 2°52.291 -999 -999 -999 -999
2009-08-21 07:15:20 51°17.263 2°52.274 -999 -999 -999 -999
2009-08-21 07:15:30 51°17.291 2°52.258 -999 -999 -999 -999
2009-08-21 07:15:40 51°17.319 2°52.244 -999 -999 -999 -999
2009-08-21 07:15:50 51°17.347 2°52.229 -999 -999 -999 -999
2009-08-21 07:16:00 51°17.374 2°52.214 -999 -999 -999 -999
2009-08-21 07:16:10 51°17.402 2°52.198 -999 -999 -999 -999
2009-08-21 07:16:20 51°17.43 2°52.184 -999 -999 -999 -999
2009-08-21 07:16:30 51°17.458 2°52.173 -999 -999 -999 -999
2009-08-21 07:16:40 51°17.486 2°52.167 -999 -999 -999 -999
2009-08-21 07:16:50 51°17.515 2°52.164 -999 -999 -999 -999
2009-08-21 07:17:00 51°17.543 2°52.165 -999 -999 -999 -999
2009-08-21 07:17:10 51°17.57 2°52.169 -999 -999 -999 -999
2009-08-21 07:17:20 51°17.598 2°52.176 -999 -999 -999 -999
2009-08-21 07:17:30 51°17.625 2°52.187 -999 -999 -999 -999
2009-08-21 07:17:40 51°17.652 2°52.198 -999 -999 -999 -999
2009-08-21 07:17:50 51°17.678 2°52.212 -999 -999 -999 -999
2009-08-21 07:18:00 51°17.704 2°52.227 -999 -999 -999 -999
2009-08-21 07:18:10 51°17.728 2°52.241 -999 -999 -999 -999
2009-08-21 07:18:20 51°17.754 2°52.257 -999 -999 -999 -999
2009-08-21 07:18:30 51°17.78 2°52.272 -999 -999 -999 -999
2009-08-21 07:18:40 51°17.807 2°52.285 -999 -999 -999 -999
2009-08-21 07:18:50 51°17.832 2°52.3 -999 -999 -999 -999
2009-08-21 07:19:00 51°17.859 2°52.313 -999 -999 -999 -999
2009-08-21 07:19:10 51°17.886 2°52.324 -999 -999 -999 -999
2009-08-21 07:19:20 51°17.913 2°52.337 -999 -999 -999 -999
2009-08-21 07:19:30 51°17.94 2°52.35 -999 -999 -999 -999
2009-08-21 07:19:40 51°17.967 2°52.362 -999 -999 -999 -999
2009-08-21 07:19:50 51°17.994 2°52.373 -999 -999 -999 -999
2009-08-21 07:20:00 51°18.021 2°52.383 -999 -999 -999 -999
2009-08-21 07:20:10 51°18.048 2°52.395 -999 -999 -999 -999
2009-08-21 07:20:20 51°18.075 2°52.406 -999 -999 -999 -999
2009-08-21 07:20:30 51°18.102 2°52.416 -999 -999 -999 -999
2009-08-21 07:20:40 51°18.13 2°52.425 -999 -999 -999 -999
2009-08-21 07:20:50 51°18.157 2°52.435 -999 -999 -999 -999
2009-08-21 07:21:00 51°18.185 2°52.445 -999 -999 -999 -999
2009-08-21 07:21:10 51°18.215 2°52.456 -999 -999 -999 -999
2009-08-21 07:21:20 51°18.242 2°52.467 -999 -999 -999 -999
2009-08-21 07:21:30 51°18.27 2°52.477 -999 -999 -999 -999
2009-08-21 07:21:40 51°18.297 2°52.487 -999 -999 -999 -999
2009-08-21 07:21:50 51°18.324 2°52.498 -999 -999 -999 -999
2009-08-21 07:22:00 51°18.352 2°52.509 -999 -999 -999 -999
2009-08-21 07:22:10 51°18.379 2°52.519 -999 -999 -999 -999
2009-08-21 07:22:20 51°18.406 2°52.53 -999 -999 -999 -999
2009-08-21 07:22:30 51°18.433 2°52.541 -999 -999 -999 -999
2009-08-21 07:22:40 51°18.461 2°52.551 -999 -999 -999 -999
2009-08-21 07:22:50 51°18.488 2°52.561 -999 -999 -999 -999
2009-08-21 07:23:00 51°18.514 2°52.574 -999 -999 -999 -999
2009-08-21 07:23:10 51°18.541 2°52.585 -999 -999 -999 -999
2009-08-21 07:23:20 51°18.568 2°52.596 -999 -999 -999 -999
2009-08-21 07:23:30 51°18.595 2°52.609 -999 -999 -999 -999
2009-08-21 07:23:40 51°18.622 2°52.622 -999 -999 -999 -999
2009-08-21 07:23:50 51°18.648 2°52.634 -999 -999 -999 -999
2009-08-21 07:24:00 51°18.675 2°52.646 -999 -999 -999 -999
2009-08-21 07:24:10 51°18.702 2°52.658 -999 -999 -999 -999
2009-08-21 07:24:20 51°18.73 2°52.669 -999 -999 -999 -999
2009-08-21 07:24:30 51°18.757 2°52.681 -999 -999 -999 -999
2009-08-21 07:24:40 51°18.784 2°52.693 -999 -999 -999 -999
2009-08-21 07:24:50 51°18.811 2°52.705 -999 -999 -999 -999
2009-08-21 07:25:00 51°18.838 2°52.717 -999 -999 -999 -999
2009-08-21 07:25:10 51°18.865 2°52.73 -999 -999 -999 -999
2009-08-21 07:25:20 51°18.892 2°52.742 -999 -999 -999 -999
2009-08-21 07:25:30 51°18.92 2°52.753 -999 -999 -999 -999
2009-08-21 07:25:40 51°18.947 2°52.765 -999 -999 -999 -999
2009-08-21 07:25:50 51°18.974 2°52.777 -999 -999 -999 -999
2009-08-21 07:26:00 51°19.001 2°52.789 -999 -999 -999 -999
2009-08-21 07:26:10 51°19.025 2°52.8 -999 -999 -999 -999
2009-08-21 07:26:20 51°19.053 2°52.811 -999 -999 -999 -999
2009-08-21 07:26:30 51°19.08 2°52.823 -999 -999 -999 -999
2009-08-21 07:26:40 51°19.107 2°52.836 -999 -999 -999 -999
2009-08-21 07:26:50 51°19.134 2°52.846 -999 -999 -999 -999
2009-08-21 07:27:00 51°19.161 2°52.858 -999 -999 -999 -999
2009-08-21 07:27:10 51°19.189 2°52.869 -999 -999 -999 -999
2009-08-21 07:27:20 51°19.216 2°52.881 -999 -999 -999 -999
2009-08-21 07:27:30 51°19.244 2°52.892 -999 -999 -999 -999
2009-08-21 07:27:40 51°19.271 2°52.903 -999 -999 -999 -999
2009-08-21 07:27:50 51°19.298 2°52.914 -999 -999 -999 -999
2009-08-21 07:28:00 51°19.325 2°52.926 -999 -999 -999 -999
2009-08-21 07:28:10 51°19.352 2°52.938 -999 -999 -999 -999
2009-08-21 07:28:20 51°19.38 2°52.948 -999 -999 -999 -999
2009-08-21 07:28:30 51°19.407 2°52.96 -999 -999 -999 -999
2009-08-21 07:28:40 51°19.437 2°52.971 -999 -999 -999 -999
2009-08-21 07:28:50 51°19.464 2°52.982 -999 -999 -999 -999
2009-08-21 07:29:00 51°19.491 2°52.992 -999 -999 -999 -999
2009-08-21 07:29:10 51°19.519 2°53.003 -999 -999 -999 -999
2009-08-21 07:29:20 51°19.546 2°53.013 -999 -999 -999 -999
2009-08-21 07:29:30 51°19.573 2°53.025 -999 -999 -999 -999
2009-08-21 07:29:40 51°19.598 2°53.034 -999 -999 -999 -999
2009-08-21 07:29:50 51°19.624 2°53.048 -999 -999 -999 -999
2009-08-21 07:30:00 51°19.651 2°53.062 -999 -999 -999 -999
2009-08-21 07:30:10 51°19.677 2°53.077 -999 -999 -999 -999
2009-08-21 07:30:20 51°19.704 2°53.09 -999 -999 -999 -999
2009-08-21 07:30:30 51°19.731 2°53.103 -999 -999 -999 -999
2009-08-21 07:30:40 51°19.758 2°53.115 -999 -999 -999 -999
2009-08-21 07:30:50 51°19.785 2°53.127 -999 -999 -999 -999
2009-08-21 07:31:00 51°19.812 2°53.136 -999 -999 -999 -999
2009-08-21 07:31:10 51°19.839 2°53.148 -999 -999 -999 -999
2009-08-21 07:31:20 51°19.866 2°53.16 -999 -999 -999 -999
2009-08-21 07:31:30 51°19.893 2°53.172 -999 -999 -999 -999
2009-08-21 07:31:40 51°19.92 2°53.186 -999 -999 -999 -999
2009-08-21 07:31:50 51°19.946 2°53.2 -999 -999 -999 -999
2009-08-21 07:32:00 51°19.972 2°53.214 -999 -999 -999 -999
2009-08-21 07:32:10 51°19.998 2°53.228 -999 -999 -999 -999
2009-08-21 07:32:20 51°20.024 2°53.243 -999 -999 -999 -999
2009-08-21 07:32:30 51°20.053 2°53.26 -999 -999 -999 -999
2009-08-21 07:32:40 51°20.079 2°53.275 -999 -999 -999 -999
2009-08-21 07:32:50 51°20.102 2°53.289 -999 -999 -999 -999
2009-08-21 07:33:00 51°20.131 2°53.304 -999 -999 -999 -999
2009-08-21 07:33:10 51°20.157 2°53.318 -999 -999 -999 -999
2009-08-21 07:33:20 51°20.183 2°53.333 -999 -999 -999 -999
2009-08-21 07:33:30 51°20.209 2°53.347 -999 -999 -999 -999
2009-08-21 07:33:40 51°20.235 2°53.361 -999 -999 -999 -999
2009-08-21 07:33:50 51°20.261 2°53.375 -999 -999 -999 -999
2009-08-21 07:34:00 51°20.288 2°53.389 -999 -999 -999 -999
2009-08-21 07:34:10 51°20.314 2°53.405 -999 -999 -999 -999
2009-08-21 07:34:20 51°20.34 2°53.419 -999 -999 -999 -999
2009-08-21 07:34:30 51°20.366 2°53.433 -999 -999 -999 -999
2009-08-21 07:34:40 51°20.393 2°53.446 -999 -999 -999 -999
2009-08-21 07:34:50 51°20.416 2°53.459 -999 -999 -999 -999
2009-08-21 07:35:00 51°20.443 2°53.473 -999 -999 -999 -999
2009-08-21 07:35:10 51°20.469 2°53.485 -999 -999 -999 -999
2009-08-21 07:35:20 51°20.495 2°53.499 -999 -999 -999 -999
2009-08-21 07:35:30 51°20.521 2°53.513 -999 -999 -999 -999
2009-08-21 07:35:40 51°20.548 2°53.527 -999 -999 -999 -999
2009-08-21 07:35:50 51°20.574 2°53.54 -999 -999 -999 -999
2009-08-21 07:36:00 51°20.6 2°53.555 -999 -999 -999 -999
2009-08-21 07:36:10 51°20.625 2°53.57 -999 -999 -999 -999
2009-08-21 07:36:20 51°20.654 2°53.586 -999 -999 -999 -999
2009-08-21 07:36:30 51°20.677 2°53.598 -999 -999 -999 -999
2009-08-21 07:36:40 51°20.703 2°53.612 -999 -999 -999 -999
2009-08-21 07:36:50 51°20.73 2°53.625 -999 -999 -999 -999
2009-08-21 07:37:00 51°20.756 2°53.639 -999 -999 -999 -999
2009-08-21 07:37:10 51°20.785 2°53.654 -999 -999 -999 -999
2009-08-21 07:37:20 51°20.811 2°53.669 -999 -999 -999 -999
2009-08-21 07:37:30 51°20.837 2°53.682 -999 -999 -999 -999
2009-08-21 07:37:40 51°20.863 2°53.696 -999 -999 -999 -999
2009-08-21 07:37:50 51°20.889 2°53.709 -999 -999 -999 -999
2009-08-21 07:38:00 51°20.915 2°53.723 -999 -999 -999 -999
2009-08-21 07:38:10 51°20.942 2°53.735 -999 -999 -999 -999
2009-08-21 07:38:20 51°20.968 2°53.747 -999 -999 -999 -999
2009-08-21 07:38:30 51°20.994 2°53.761 -999 -999 -999 -999
2009-08-21 07:38:40 51°21.02 2°53.775 -999 -999 -999 -999
2009-08-21 07:38:50 51°21.046 2°53.789 -999 -999 -999 -999
2009-08-21 07:39:00 51°21.071 2°53.802 -999 -999 -999 -999
2009-08-21 07:39:10 51°21.097 2°53.816 -999 -999 -999 -999
2009-08-21 07:39:20 51°21.123 2°53.83 -999 -999 -999 -999
2009-08-21 07:39:30 51°21.15 2°53.842 -999 -999 -999 -999
2009-08-21 07:39:40 51°21.176 2°53.855 -999 -999 -999 -999
2009-08-21 07:39:50 51°21.202 2°53.869 -999 -999 -999 -999
2009-08-21 07:40:00 51°21.228 2°53.882 -999 -999 -999 -999
2009-08-21 07:40:10 51°21.254 2°53.895 -999 -999 -999 -999
2009-08-21 07:40:20 51°21.28 2°53.909 -999 -999 -999 -999
2009-08-21 07:40:30 51°21.306 2°53.923 -999 -999 -999 -999
2009-08-21 07:40:40 51°21.333 2°53.935 -999 -999 -999 -999
2009-08-21 07:40:50 51°21.359 2°53.947 -999 -999 -999 -999
2009-08-21 07:41:00 51°21.385 2°53.96 -999 -999 -999 -999
2009-08-21 07:41:10 51°21.411 2°53.974 -999 -999 -999 -999
2009-08-21 07:41:20 51°21.438 2°53.988 -999 -999 -999 -999
2009-08-21 07:41:30 51°21.464 2°54 -999 -999 -999 -999
2009-08-21 07:41:40 51°21.491 2°54.013 -999 -999 -999 -999
2009-08-21 07:41:50 51°21.516 2°54.028 -999 -999 -999 -999
2009-08-21 07:42:00 51°21.539 2°54.051 -999 -999 -999 -999
2009-08-21 07:42:10 51°21.557 2°54.074 -999 -999 -999 -999
2009-08-21 07:42:20 51°21.578 2°54.1 -999 -999 -999 -999
2009-08-21 07:42:30 51°21.599 2°54.126 -999 -999 -999 -999
2009-08-21 07:42:40 51°21.618 2°54.155 -999 -999 -999 -999
2009-08-21 07:42:50 51°21.639 2°54.179 -999 -999 -999 -999
2009-08-21 07:43:00 51°21.66 2°54.204 -999 -999 -999 -999
2009-08-21 07:43:10 51°21.681 2°54.23 -999 -999 -999 -999
2009-08-21 07:43:20 51°21.701 2°54.256 -999 -999 -999 -999
2009-08-21 07:43:30 51°21.722 2°54.282 -999 -999 -999 -999
2009-08-21 07:43:40 51°21.742 2°54.309 -999 -999 -999 -999
2009-08-21 07:43:50 51°21.763 2°54.336 -999 -999 -999 -999
2009-08-21 07:44:00 51°21.785 2°54.361 -999 -999 -999 -999
2009-08-21 07:44:10 51°21.805 2°54.388 -999 -999 -999 -999
2009-08-21 07:44:20 51°21.826 2°54.415 -999 -999 -999 -999
2009-08-21 07:44:30 51°21.846 2°54.443 -999 -999 -999 -999
2009-08-21 07:44:40 51°21.866 2°54.472 -999 -999 -999 -999
2009-08-21 07:44:50 51°21.887 2°54.499 -999 -999 -999 -999
2009-08-21 07:45:00 51°21.907 2°54.526 -999 -999 -999 -999
2009-08-21 07:45:10 51°21.929 2°54.557 -999 -999 -999 -999
2009-08-21 07:45:20 51°21.948 2°54.587 -999 -999 -999 -999
2009-08-21 07:45:30 51°21.967 2°54.616 -999 -999 -999 -999
2009-08-21 07:45:40 51°21.986 2°54.645 -999 -999 -999 -999
2009-08-21 07:45:50 51°22.006 2°54.673 -999 -999 -999 -999
2009-08-21 07:46:00 51°22.024 2°54.704 -999 -999 -999 -999
2009-08-21 07:46:10 51°22.042 2°54.734 -999 -999 -999 -999
2009-08-21 07:46:20 51°22.062 2°54.763 -999 -999 -999 -999
2009-08-21 07:46:30 51°22.081 2°54.793 -999 -999 -999 -999
2009-08-21 07:46:40 51°22.1 2°54.823 -999 -999 -999 -999
2009-08-21 07:46:50 51°22.118 2°54.854 -999 -999 -999 -999
2009-08-21 07:47:00 51°22.136 2°54.885 -999 -999 -999 -999
2009-08-21 07:47:10 51°22.155 2°54.915 -999 -999 -999 -999
2009-08-21 07:47:20 51°22.174 2°54.945 -999 -999 -999 -999
2009-08-21 07:47:30 51°22.194 2°54.972 -999 -999 -999 -999
2009-08-21 07:47:40 51°22.215 2°54.996 -999 -999 -999 -999
2009-08-21 07:47:50 51°22.238 2°55.017 -999 -999 -999 -999
2009-08-21 07:48:00 51°22.261 2°55.04 -999 -999 -999 -999
2009-08-21 07:48:10 51°22.283 2°55.057 -999 -999 -999 -999
2009-08-21 07:48:20 51°22.307 2°55.075 -999 -999 -999 -999
2009-08-21 07:48:30 51°22.332 2°55.09 -999 -999 -999 -999
2009-08-21 07:48:40 51°22.358 2°55.104 -999 -999 -999 -999
2009-08-21 07:48:50 51°22.386 2°55.122 -999 -999 -999 -999
2009-08-21 07:49:00 51°22.412 2°55.136 -999 -999 -999 -999
2009-08-21 07:49:10 51°22.438 2°55.149 -999 -999 -999 -999
2009-08-21 07:49:20 51°22.464 2°55.161 -999 -999 -999 -999
2009-08-21 07:49:30 51°22.491 2°55.171 -999 -999 -999 -999
2009-08-21 07:49:40 51°22.517 2°55.181 -999 -999 -999 -999
2009-08-21 07:49:50 51°22.544 2°55.188 -999 -999 -999 -999
2009-08-21 07:50:00 51°22.571 2°55.194 -999 -999 -999 -999
2009-08-21 07:50:10 51°22.598 2°55.201 -999 -999 -999 -999
2009-08-21 07:50:20 51°22.626 2°55.207 -999 -999 -999 -999
2009-08-21 07:50:30 51°22.653 2°55.213 -999 -999 -999 -999
2009-08-21 07:50:40 51°22.681 2°55.219 -999 -999 -999 -999
2009-08-21 07:50:50 51°22.708 2°55.228 -999 -999 -999 -999
2009-08-21 07:51:00 51°22.736 2°55.236 -999 -999 -999 -999
2009-08-21 07:51:10 51°22.763 2°55.243 -999 -999 -999 -999
2009-08-21 07:51:20 51°22.791 2°55.252 -999 -999 -999 -999
2009-08-21 07:51:30 51°22.818 2°55.261 -999 -999 -999 -999
2009-08-21 07:51:40 51°22.845 2°55.269 -999 -999 -999 -999
2009-08-21 07:51:50 51°22.872 2°55.279 -999 -999 -999 -999
2009-08-21 07:52:00 51°22.899 2°55.286 -999 -999 -999 -999
2009-08-21 07:52:10 51°22.927 2°55.293 -999 -999 -999 -999
2009-08-21 07:52:20 51°22.953 2°55.303 -999 -999 -999 -999
2009-08-21 07:52:30 51°22.98 2°55.313 -999 -999 -999 -999
2009-08-21 07:52:40 51°23.006 2°55.324 -999 -999 -999 -999
2009-08-21 07:52:50 51°23.03 2°55.333 -999 -999 -999 -999
2009-08-21 07:53:00 51°23.057 2°55.342 -999 -999 -999 -999
2009-08-21 07:53:10 51°23.087 2°55.352 -999 -999 -999 -999
2009-08-21 07:53:20 51°23.114 2°55.362 -999 -999 -999 -999
2009-08-21 07:53:30 51°23.14 2°55.373 -999 -999 -999 -999
2009-08-21 07:53:40 51°23.167 2°55.384 -999 -999 -999 -999
2009-08-21 07:53:50 51°23.194 2°55.396 -999 -999 -999 -999
2009-08-21 07:54:00 51°23.22 2°55.407 -999 -999 -999 -999
2009-08-21 07:54:10 51°23.244 2°55.417 -999 -999 -999 -999
2009-08-21 07:54:20 51°23.274 2°55.43 -999 -999 -999 -999
2009-08-21 07:54:30 51°23.298 2°55.439 -999 -999 -999 -999
2009-08-21 07:54:40 51°23.324 2°55.45 -999 -999 -999 -999
2009-08-21 07:54:50 51°23.351 2°55.461 -999 -999 -999 -999
2009-08-21 07:55:00 51°23.377 2°55.471 -999 -999 -999 -999
2009-08-21 07:55:10 51°23.403 2°55.48 -999 -999 -999 -999
2009-08-21 07:55:20 51°23.43 2°55.493 -999 -999 -999 -999
2009-08-21 07:55:30 51°23.456 2°55.504 -999 -999 -999 -999
2009-08-21 07:55:40 51°23.482 2°55.515 -999 -999 -999 -999
2009-08-21 07:55:50 51°23.509 2°55.526 -999 -999 -999 -999
2009-08-21 07:56:00 51°23.535 2°55.537 -999 -999 -999 -999
2009-08-21 07:56:10 51°23.561 2°55.549 -999 -999 -999 -999
2009-08-21 07:56:20 51°23.588 2°55.558 -999 -999 -999 -999
2009-08-21 07:56:30 51°23.614 2°55.569 -999 -999 -999 -999
2009-08-21 07:56:40 51°23.641 2°55.581 -999 -999 -999 -999
2009-08-21 07:56:50 51°23.667 2°55.591 -999 -999 -999 -999
2009-08-21 07:57:00 51°23.694 2°55.603 -999 -999 -999 -999
2009-08-21 07:57:10 51°23.723 2°55.617 -999 -999 -999 -999
2009-08-21 07:57:20 51°23.749 2°55.628 -999 -999 -999 -999
2009-08-21 07:57:30 51°23.775 2°55.641 -999 -999 -999 -999
2009-08-21 07:57:40 51°23.801 2°55.653 -999 -999 -999 -999
2009-08-21 07:57:50 51°23.826 2°55.667 -999 -999 -999 -999
2009-08-21 07:58:00 51°23.852 2°55.68 -999 -999 -999 -999
2009-08-21 07:58:10 51°23.877 2°55.694 -999 -999 -999 -999
2009-08-21 07:58:20 51°23.903 2°55.709 -999 -999 -999 -999
2009-08-21 07:58:30 51°23.928 2°55.723 -999 -999 -999 -999
2009-08-21 07:58:40 51°23.954 2°55.736 -999 -999 -999 -999
2009-08-21 07:58:50 51°23.98 2°55.75 -999 -999 -999 -999
2009-08-21 07:59:00 51°24.006 2°55.764 -999 -999 -999 -999
2009-08-21 07:59:10 51°24.031 2°55.779 -999 -999 -999 -999
2009-08-21 07:59:20 51°24.058 2°55.792 -999 -999 -999 -999
2009-08-21 07:59:30 51°24.084 2°55.806 -999 -999 -999 -999
2009-08-21 07:59:40 51°24.11 2°55.818 -999 -999 -999 -999
2009-08-21 07:59:50 51°24.135 2°55.831 -999 -999 -999 -999
2009-08-21 08:00:00 51°24.161 2°55.846 -999 -999 -999 -999
2009-08-21 08:00:10 51°24.188 2°55.858 -999 -999 -999 -999
2009-08-21 08:00:20 51°24.211 2°55.869 -999 -999 -999 -999
2009-08-21 08:00:30 51°24.237 2°55.883 -999 -999 -999 -999
2009-08-21 08:00:40 51°24.263 2°55.896 -999 -999 -999 -999
2009-08-21 08:00:50 51°24.289 2°55.91 -999 -999 -999 -999
2009-08-21 08:01:00 51°24.315 2°55.923 -999 -999 -999 -999
2009-08-21 08:01:10 51°24.344 2°55.939 -999 -999 -999 -999
2009-08-21 08:01:20 51°24.37 2°55.95 -999 -999 -999 -999
2009-08-21 08:01:30 51°24.397 2°55.961 -999 -999 -999 -999
2009-08-21 08:01:40 51°24.423 2°55.973 -999 -999 -999 -999
2009-08-21 08:01:50 51°24.45 2°55.986 -999 -999 -999 -999
2009-08-21 08:02:00 51°24.476 2°55.998 -999 -999 -999 -999
2009-08-21 08:02:10 51°24.503 2°56.009 -999 -999 -999 -999
2009-08-21 08:02:20 51°24.53 2°56.019 -999 -999 -999 -999
2009-08-21 08:02:30 51°24.557 2°56.031 -999 -999 -999 -999
2009-08-21 08:02:40 51°24.583 2°56.042 -999 -999 -999 -999
2009-08-21 08:02:50 51°24.61 2°56.053 -999 -999 -999 -999
2009-08-21 08:03:00 51°24.637 2°56.064 -999 -999 -999 -999
2009-08-21 08:03:10 51°24.663 2°56.074 -999 -999 -999 -999
2009-08-21 08:03:20 51°24.691 2°56.085 -999 -999 -999 -999
2009-08-21 08:03:30 51°24.718 2°56.097 -999 -999 -999 -999
2009-08-21 08:03:40 51°24.744 2°56.109 -999 -999 -999 -999
2009-08-21 08:03:50 51°24.772 2°56.119 -999 -999 -999 -999
2009-08-21 08:04:00 51°24.799 2°56.131 -999 -999 -999 -999
2009-08-21 08:04:10 51°24.826 2°56.142 -999 -999 -999 -999
2009-08-21 08:04:20 51°24.853 2°56.154 -999 -999 -999 -999
2009-08-21 08:04:30 51°24.88 2°56.166 -999 -999 -999 -999
2009-08-21 08:04:40 51°24.907 2°56.176 -999 -999 -999 -999
2009-08-21 08:04:50 51°24.934 2°56.186 -999 -999 -999 -999
2009-08-21 08:05:00 51°24.961 2°56.198 -999 -999 -999 -999
2009-08-21 08:05:10 51°24.987 2°56.21 -999 -999 -999 -999
2009-08-21 08:05:20 51°25.013 2°56.223 -999 -999 -999 -999
2009-08-21 08:05:30 51°25.038 2°56.234 -999 -999 -999 -999
2009-08-21 08:05:40 51°25.064 2°56.245 -999 -999 -999 -999
2009-08-21 08:05:50 51°25.091 2°56.256 -999 -999 -999 -999
2009-08-21 08:06:00 51°25.117 2°56.268 -999 -999 -999 -999
2009-08-21 08:06:10 51°25.141 2°56.279 -999 -999 -999 -999
2009-08-21 08:06:20 51°25.167 2°56.29 -999 -999 -999 -999
2009-08-21 08:06:30 51°25.194 2°56.302 -999 -999 -999 -999
2009-08-21 08:06:40 51°25.219 2°56.313 -999 -999 -999 -999
2009-08-21 08:06:50 51°25.241 2°56.322 -999 -999 -999 -999
2009-08-21 08:07:00 51°25.26 2°56.329 -999 -999 -999 -999
2009-08-21 08:07:10 51°25.28 2°56.337 -999 -999 -999 -999
2009-08-21 08:07:20 51°25.302 2°56.346 -999 -999 -999 -999
2009-08-21 08:07:30 51°25.327 2°56.357 -999 -999 -999 -999
2009-08-21 08:07:40 51°25.352 2°56.369 -999 -999 -999 -999
2009-08-21 08:07:50 51°25.378 2°56.382 -999 -999 -999 -999
2009-08-21 08:08:00 51°25.404 2°56.394 -999 -999 -999 -999
2009-08-21 08:08:10 51°25.43 2°56.408 -999 -999 -999 -999
2009-08-21 08:08:20 51°25.456 2°56.421 -999 -999 -999 -999
2009-08-21 08:08:30 51°25.484 2°56.433 -999 -999 -999 -999
2009-08-21 08:08:40 51°25.509 2°56.447 -999 -999 -999 -999
2009-08-21 08:08:50 51°25.535 2°56.461 -999 -999 -999 -999
2009-08-21 08:09:00 51°25.562 2°56.472 -999 -999 -999 -999
2009-08-21 08:09:10 51°25.589 2°56.483 -999 -999 -999 -999
2009-08-21 08:09:20 51°25.616 2°56.493 -999 -999 -999 -999
2009-08-21 08:09:30 51°25.645 2°56.507 -999 -999 -999 -999
2009-08-21 08:09:40 51°25.672 2°56.518 -999 -999 -999 -999
2009-08-21 08:09:50 51°25.697 2°56.528 -999 -999 -999 -999
2009-08-21 08:10:00 51°25.724 2°56.538 -999 -999 -999 -999
2009-08-21 08:10:10 51°25.753 2°56.551 -999 -999 -999 -999
2009-08-21 08:10:20 51°25.78 2°56.562 -999 -999 -999 -999
2009-08-21 08:10:30 51°25.807 2°56.574 -999 -999 -999 -999
2009-08-21 08:10:40 51°25.833 2°56.584 -999 -999 -999 -999
2009-08-21 08:10:50 51°25.86 2°56.594 -999 -999 -999 -999
2009-08-21 08:11:00 51°25.887 2°56.606 -999 -999 -999 -999
2009-08-21 08:11:10 51°25.914 2°56.617 -999 -999 -999 -999
2009-08-21 08:11:20 51°25.941 2°56.628 -999 -999 -999 -999
2009-08-21 08:11:30 51°25.968 2°56.639 -999 -999 -999 -999
2009-08-21 08:11:40 51°25.995 2°56.649 -999 -999 -999 -999
2009-08-21 08:11:50 51°26.022 2°56.658 -999 -999 -999 -999
2009-08-21 08:12:00 51°26.049 2°56.668 -999 -999 -999 -999
2009-08-21 08:12:10 51°26.075 2°56.679 -999 -999 -999 -999
2009-08-21 08:12:20 51°26.102 2°56.69 -999 -999 -999 -999
2009-08-21 08:12:30 51°26.125 2°56.699 -999 -999 -999 -999
2009-08-21 08:12:40 51°26.152 2°56.709 -999 -999 -999 -999
2009-08-21 08:12:50 51°26.179 2°56.719 -999 -999 -999 -999
2009-08-21 08:13:00 51°26.206 2°56.73 -999 -999 -999 -999
2009-08-21 08:13:10 51°26.232 2°56.741 -999 -999 -999 -999
2009-08-21 08:13:20 51°26.259 2°56.752 -999 -999 -999 -999
2009-08-21 08:13:30 51°26.286 2°56.763 -999 -999 -999 -999
2009-08-21 08:13:40 51°26.312 2°56.773 -999 -999 -999 -999
2009-08-21 08:13:50 51°26.339 2°56.785 -999 -999 -999 -999
2009-08-21 08:14:00 51°26.366 2°56.795 -999 -999 -999 -999
2009-08-21 08:14:10 51°26.396 2°56.807 -999 -999 -999 -999
2009-08-21 08:14:20 51°26.42 2°56.816 -999 -999 -999 -999
2009-08-21 08:14:30 51°26.449 2°56.828 -999 -999 -999 -999
2009-08-21 08:14:40 51°26.473 2°56.839 -999 -999 -999 -999
2009-08-21 08:14:50 51°26.502 2°56.85 -999 -999 -999 -999
2009-08-21 08:15:00 51°26.528 2°56.859 -999 -999 -999 -999
2009-08-21 08:15:10 51°26.554 2°56.87 -999 -999 -999 -999
2009-08-21 08:15:20 51°26.581 2°56.88 -999 -999 -999 -999
2009-08-21 08:15:30 51°26.607 2°56.891 -999 -999 -999 -999
2009-08-21 08:15:40 51°26.634 2°56.9 -999 -999 -999 -999
2009-08-21 08:15:50 51°26.66 2°56.91 -999 -999 -999 -999
2009-08-21 08:16:00 51°26.688 2°56.918 -999 -999 -999 -999
2009-08-21 08:16:10 51°26.714 2°56.928 -999 -999 -999 -999
2009-08-21 08:16:20 51°26.74 2°56.938 -999 -999 -999 -999
2009-08-21 08:16:30 51°26.767 2°56.947 -999 -999 -999 -999
2009-08-21 08:16:40 51°26.794 2°56.955 -999 -999 -999 -999
2009-08-21 08:16:50 51°26.82 2°56.965 -999 -999 -999 -999
2009-08-21 08:17:00 51°26.847 2°56.974 -999 -999 -999 -999
2009-08-21 08:17:10 51°26.873 2°56.982 -999 -999 -999 -999
2009-08-21 08:17:20 51°26.899 2°56.988 -999 -999 -999 -999
2009-08-21 08:17:30 51°26.926 2°56.996 -999 -999 -999 -999
2009-08-21 08:17:40 51°26.952 2°57.005 -999 -999 -999 -999
2009-08-21 08:17:50 51°26.978 2°57.011 -999 -999 -999 -999
2009-08-21 08:18:00 51°27.003 2°57.022 -999 -999 -999 -999
2009-08-21 08:18:10 51°27.028 2°57.033 -999 -999 -999 -999
2009-08-21 08:18:20 51°27.054 2°57.041 -999 -999 -999 -999
2009-08-21 08:18:30 51°27.08 2°57.05 -999 -999 -999 -999
2009-08-21 08:18:40 51°27.105 2°57.058 -999 -999 -999 -999
2009-08-21 08:18:50 51°27.131 2°57.067 -999 -999 -999 -999
2009-08-21 08:19:00 51°27.157 2°57.076 -999 -999 -999 -999
2009-08-21 08:19:10 51°27.18 2°57.085 -999 -999 -999 -999
2009-08-21 08:19:20 51°27.21 2°57.093 -999 -999 -999 -999
2009-08-21 08:19:30 51°27.236 2°57.1 -999 -999 -999 -999
2009-08-21 08:19:40 51°27.262 2°57.111 -999 -999 -999 -999
2009-08-21 08:19:50 51°27.288 2°57.119 -999 -999 -999 -999
2009-08-21 08:20:00 51°27.315 2°57.125 -999 -999 -999 -999
2009-08-21 08:20:10 51°27.341 2°57.132 -999 -999 -999 -999
2009-08-21 08:20:20 51°27.368 2°57.14 -999 -999 -999 -999
2009-08-21 08:20:30 51°27.395 2°57.149 -999 -999 -999 -999
2009-08-21 08:20:40 51°27.422 2°57.157 -999 -999 -999 -999
2009-08-21 08:20:50 51°27.448 2°57.166 -999 -999 -999 -999
2009-08-21 08:21:00 51°27.476 2°57.175 -999 -999 -999 -999
2009-08-21 08:21:10 51°27.503 2°57.184 -999 -999 -999 -999
2009-08-21 08:21:20 51°27.53 2°57.193 -999 -999 -999 -999
2009-08-21 08:21:30 51°27.558 2°57.202 -999 -999 -999 -999
2009-08-21 08:21:40 51°27.584 2°57.212 -999 -999 -999 -999
2009-08-21 08:21:50 51°27.611 2°57.218 -999 -999 -999 -999
2009-08-21 08:22:00 51°27.639 2°57.225 -999 -999 -999 -999
2009-08-21 08:22:10 51°27.663 2°57.234 -999 -999 -999 -999
2009-08-21 08:22:20 51°27.691 2°57.243 -999 -999 -999 -999
2009-08-21 08:22:30 51°27.718 2°57.251 -999 -999 -999 -999
2009-08-21 08:22:40 51°27.748 2°57.26 -999 -999 -999 -999
2009-08-21 08:22:50 51°27.772 2°57.268 -999 -999 -999 -999
2009-08-21 08:23:00 51°27.799 2°57.276 -999 -999 -999 -999
2009-08-21 08:23:10 51°27.826 2°57.285 -999 -999 -999 -999
2009-08-21 08:23:20 51°27.853 2°57.296 -999 -999 -999 -999
2009-08-21 08:23:30 51°27.88 2°57.304 -999 -999 -999 -999
2009-08-21 08:23:40 51°27.908 2°57.312 -999 -999 -999 -999
2009-08-21 08:23:50 51°27.935 2°57.321 -999 -999 -999 -999
2009-08-21 08:24:00 51°27.962 2°57.33 -999 -999 -999 -999
2009-08-21 08:24:10 51°27.989 2°57.34 -999 -999 -999 -999
2009-08-21 08:24:20 51°28.017 2°57.348 -999 -999 -999 -999
2009-08-21 08:24:30 51°28.044 2°57.355 -999 -999 -999 -999
2009-08-21 08:24:40 51°28.071 2°57.365 -999 -999 -999 -999
2009-08-21 08:24:50 51°28.098 2°57.375 -999 -999 -999 -999
2009-08-21 08:25:00 51°28.125 2°57.383 -999 -999 -999 -999
2009-08-21 08:25:10 51°28.155 2°57.393 -999 -999 -999 -999
2009-08-21 08:25:20 51°28.182 2°57.403 -999 -999 -999 -999
2009-08-21 08:25:30 51°28.209 2°57.41 -999 -999 -999 -999
2009-08-21 08:25:40 51°28.236 2°57.417 -999 -999 -999 -999
2009-08-21 08:25:50 51°28.263 2°57.425 -999 -999 -999 -999
2009-08-21 08:26:00 51°28.29 2°57.432 -999 -999 -999 -999
2009-08-21 08:26:10 51°28.317 2°57.438 -999 -999 -999 -999
2009-08-21 08:26:20 51°28.343 2°57.448 -999 -999 -999 -999
2009-08-21 08:26:30 51°28.37 2°57.457 -999 -999 -999 -999
2009-08-21 08:26:40 51°28.397 2°57.466 -999 -999 -999 -999
2009-08-21 08:26:50 51°28.424 2°57.475 -999 -999 -999 -999
2009-08-21 08:27:00 51°28.451 2°57.484 -999 -999 -999 -999
2009-08-21 08:27:10 51°28.477 2°57.493 -999 -999 -999 -999
2009-08-21 08:27:20 51°28.503 2°57.502 -999 -999 -999 -999
2009-08-21 08:27:30 51°28.53 2°57.51 -999 -999 -999 -999
2009-08-21 08:27:40 51°28.557 2°57.518 -999 -999 -999 -999
2009-08-21 08:27:50 51°28.583 2°57.527 -999 -999 -999 -999
2009-08-21 08:28:00 51°28.61 2°57.537 -999 -999 -999 -999
2009-08-21 08:28:10 51°28.636 2°57.548 -999 -999 -999 -999
2009-08-21 08:28:20 51°28.662 2°57.557 -999 -999 -999 -999
2009-08-21 08:28:30 51°28.689 2°57.567 -999 -999 -999 -999
2009-08-21 08:28:40 51°28.716 2°57.577 -999 -999 -999 -999
2009-08-21 08:28:50 51°28.742 2°57.586 -999 -999 -999 -999
2009-08-21 08:29:00 51°28.769 2°57.596 -999 -999 -999 -999
2009-08-21 08:29:10 51°28.795 2°57.608 -999 -999 -999 -999
2009-08-21 08:29:20 51°28.821 2°57.618 -999 -999 -999 -999
2009-08-21 08:29:30 51°28.848 2°57.629 -999 -999 -999 -999
2009-08-21 08:29:40 51°28.874 2°57.639 -999 -999 -999 -999
2009-08-21 08:29:50 51°28.9 2°57.652 -999 -999 -999 -999
2009-08-21 08:30:00 51°28.926 2°57.665 -999 -999 -999 -999
2009-08-21 08:30:10 51°28.95 2°57.675 -999 -999 -999 -999
2009-08-21 08:30:20 51°28.976 2°57.686 -999 -999 -999 -999
2009-08-21 08:30:30 51°29.002 2°57.698 -999 -999 -999 -999
2009-08-21 08:30:40 51°29.028 2°57.71 -999 -999 -999 -999
2009-08-21 08:30:50 51°29.055 2°57.72 -999 -999 -999 -999
2009-08-21 08:31:00 51°29.081 2°57.732 -999 -999 -999 -999
2009-08-21 08:31:10 51°29.106 2°57.745 -999 -999 -999 -999
2009-08-21 08:31:20 51°29.133 2°57.754 -999 -999 -999 -999
2009-08-21 08:31:30 51°29.159 2°57.764 -999 -999 -999 -999
2009-08-21 08:31:40 51°29.185 2°57.775 -999 -999 -999 -999
2009-08-21 08:31:50 51°29.211 2°57.788 -999 -999 -999 -999
2009-08-21 08:32:00 51°29.237 2°57.798 -999 -999 -999 -999
2009-08-21 08:32:10 51°29.263 2°57.807 -999 -999 -999 -999
2009-08-21 08:32:20 51°29.289 2°57.818 -999 -999 -999 -999
2009-08-21 08:32:30 51°29.315 2°57.83 -999 -999 -999 -999
2009-08-21 08:32:40 51°29.341 2°57.843 -999 -999 -999 -999
2009-08-21 08:32:50 51°29.367 2°57.854 -999 -999 -999 -999
2009-08-21 08:33:00 51°29.394 2°57.863 -999 -999 -999 -999
2009-08-21 08:33:10 51°29.423 2°57.876 -999 -999 -999 -999
2009-08-21 08:33:20 51°29.449 2°57.888 -999 -999 -999 -999
2009-08-21 08:33:30 51°29.475 2°57.899 -999 -999 -999 -999
2009-08-21 08:33:40 51°29.499 2°57.909 -999 -999 -999 -999
2009-08-21 08:33:50 51°29.528 2°57.922 -999 -999 -999 -999
2009-08-21 08:34:00 51°29.554 2°57.935 -999 -999 -999 -999
2009-08-21 08:34:10 51°29.58 2°57.946 -999 -999 -999 -999
2009-08-21 08:34:20 51°29.606 2°57.958 -999 -999 -999 -999
2009-08-21 08:34:30 51°29.632 2°57.971 -999 -999 -999 -999
2009-08-21 08:34:40 51°29.659 2°57.983 -999 -999 -999 -999
2009-08-21 08:34:50 51°29.685 2°57.995 -999 -999 -999 -999
2009-08-21 08:35:00 51°29.711 2°58.007 -999 -999 -999 -999
2009-08-21 08:35:10 51°29.738 2°58.018 -999 -999 -999 -999
2009-08-21 08:35:20 51°29.764 2°58.029 -999 -999 -999 -999
2009-08-21 08:35:30 51°29.791 2°58.041 -999 -999 -999 -999
2009-08-21 08:35:40 51°29.817 2°58.054 -999 -999 -999 -999
2009-08-21 08:35:50 51°29.844 2°58.065 -999 -999 -999 -999
2009-08-21 08:36:00 51°29.871 2°58.076 -999 -999 -999 -999
2009-08-21 08:36:10 51°29.897 2°58.089 -999 -999 -999 -999
2009-08-21 08:36:20 51°29.923 2°58.1 -999 -999 -999 -999
2009-08-21 08:36:30 51°29.95 2°58.11 -999 -999 -999 -999
2009-08-21 08:36:40 51°29.977 2°58.121 -999 -999 -999 -999
2009-08-21 08:36:50 51°30.003 2°58.133 -999 -999 -999 -999
2009-08-21 08:37:00 51°30.03 2°58.143 -999 -999 -999 -999
2009-08-21 08:37:10 51°30.057 2°58.154 -999 -999 -999 -999
2009-08-21 08:37:20 51°30.083 2°58.166 -999 -999 -999 -999
2009-08-21 08:37:30 51°30.11 2°58.176 -999 -999 -999 -999
2009-08-21 08:37:40 51°30.137 2°58.188 -999 -999 -999 -999
2009-08-21 08:37:50 51°30.164 2°58.2 -999 -999 -999 -999
2009-08-21 08:38:00 51°30.191 2°58.211 -999 -999 -999 -999
2009-08-21 08:38:10 51°30.216 2°58.222 -999 -999 -999 -999
2009-08-21 08:38:20 51°30.242 2°58.236 -999 -999 -999 -999
2009-08-21 08:38:30 51°30.269 2°58.25 -999 -999 -999 -999
2009-08-21 08:38:40 51°30.296 2°58.261 -999 -999 -999 -999
2009-08-21 08:38:50 51°30.323 2°58.273 -999 -999 -999 -999
2009-08-21 08:39:00 51°30.349 2°58.286 -999 -999 -999 -999
2009-08-21 08:39:10 51°30.376 2°58.299 -999 -999 -999 -999
2009-08-21 08:39:20 51°30.403 2°58.311 -999 -999 -999 -999
2009-08-21 08:39:30 51°30.43 2°58.322 -999 -999 -999 -999
2009-08-21 08:39:40 51°30.457 2°58.334 -999 -999 -999 -999
2009-08-21 08:39:50 51°30.484 2°58.346 -999 -999 -999 -999
2009-08-21 08:40:00 51°30.511 2°58.359 -999 -999 -999 -999
2009-08-21 08:40:10 51°30.538 2°58.37 -999 -999 -999 -999
2009-08-21 08:40:20 51°30.568 2°58.383 -999 -999 -999 -999
2009-08-21 08:40:30 51°30.595 2°58.396 -999 -999 -999 -999
2009-08-21 08:40:40 51°30.622 2°58.41 -999 -999 -999 -999
2009-08-21 08:40:50 51°30.648 2°58.422 -999 -999 -999 -999
2009-08-21 08:41:00 51°30.675 2°58.434 -999 -999 -999 -999
2009-08-21 08:41:10 51°30.702 2°58.445 -999 -999 -999 -999
2009-08-21 08:41:20 51°30.727 2°58.46 -999 -999 -999 -999
2009-08-21 08:41:30 51°30.754 2°58.473 -999 -999 -999 -999
2009-08-21 08:41:40 51°30.78 2°58.487 -999 -999 -999 -999
2009-08-21 08:41:50 51°30.807 2°58.499 -999 -999 -999 -999
2009-08-21 08:42:00 51°30.833 2°58.511 -999 -999 -999 -999
2009-08-21 08:42:10 51°30.86 2°58.524 -999 -999 -999 -999
2009-08-21 08:42:20 51°30.886 2°58.536 -999 -999 -999 -999
2009-08-21 08:42:30 51°30.913 2°58.548 -999 -999 -999 -999
2009-08-21 08:42:40 51°30.94 2°58.561 -999 -999 -999 -999
2009-08-21 08:42:50 51°30.966 2°58.574 -999 -999 -999 -999
2009-08-21 08:43:00 51°30.992 2°58.587 -999 -999 -999 -999
2009-08-21 08:43:10 51°31.018 2°58.599 -999 -999 -999 -999
2009-08-21 08:43:20 51°31.044 2°58.613 -999 -999 -999 -999
2009-08-21 08:43:30 51°31.07 2°58.624 -999 -999 -999 -999
2009-08-21 08:43:40 51°31.096 2°58.637 -999 -999 -999 -999
2009-08-21 08:43:50 51°31.121 2°58.648 -999 -999 -999 -999
2009-08-21 08:44:00 51°31.147 2°58.66 -999 -999 -999 -999
2009-08-21 08:44:10 51°31.173 2°58.672 -999 -999 -999 -999
2009-08-21 08:44:20 51°31.198 2°58.685 -999 -999 -999 -999
2009-08-21 08:44:30 51°31.224 2°58.696 -999 -999 -999 -999
2009-08-21 08:44:40 51°31.25 2°58.709 -999 -999 -999 -999
2009-08-21 08:44:50 51°31.275 2°58.722 -999 -999 -999 -999
2009-08-21 08:45:00 51°31.301 2°58.733 -999 -999 -999 -999
2009-08-21 08:45:10 51°31.324 2°58.743 -999 -999 -999 -999
2009-08-21 08:45:20 51°31.35 2°58.756 -999 -999 -999 -999
2009-08-21 08:45:30 51°31.375 2°58.77 -999 -999 -999 -999
2009-08-21 08:45:40 51°31.401 2°58.781 -999 -999 -999 -999
2009-08-21 08:45:50 51°31.427 2°58.793 -999 -999 -999 -999
2009-08-21 08:46:00 51°31.453 2°58.805 -999 -999 -999 -999
2009-08-21 08:46:10 51°31.479 2°58.817 -999 -999 -999 -999
2009-08-21 08:46:20 51°31.507 2°58.829 -999 -999 -999 -999
2009-08-21 08:46:30 51°31.532 2°58.843 -999 -999 -999 -999
2009-08-21 08:46:40 51°31.558 2°58.856 -999 -999 -999 -999
2009-08-21 08:46:50 51°31.583 2°58.867 -999 -999 -999 -999
2009-08-21 08:47:00 51°31.609 2°58.877 -999 -999 -999 -999
2009-08-21 08:47:10 51°31.634 2°58.889 -999 -999 -999 -999
2009-08-21 08:47:20 51°31.66 2°58.902 -999 -999 -999 -999
2009-08-21 08:47:30 51°31.685 2°58.914 -999 -999 -999 -999
2009-08-21 08:47:40 51°31.711 2°58.925 -999 -999 -999 -999
2009-08-21 08:47:50 51°31.737 2°58.936 -999 -999 -999 -999
2009-08-21 08:48:00 51°31.762 2°58.948 -999 -999 -999 -999
2009-08-21 08:48:10 51°31.788 2°58.961 -999 -999 -999 -999
2009-08-21 08:48:20 51°31.813 2°58.974 -999 -999 -999 -999
2009-08-21 08:48:30 51°31.839 2°58.986 -999 -999 -999 -999
2009-08-21 08:48:40 51°31.864 2°58.998 -999 -999 -999 -999
2009-08-21 08:48:50 51°31.89 2°59.01 -999 -999 -999 -999
2009-08-21 08:49:00 51°31.916 2°59.022 -999 -999 -999 -999
2009-08-21 08:49:10 51°31.942 2°59.034 -999 -999 -999 -999
2009-08-21 08:49:20 51°31.968 2°59.046 -999 -999 -999 -999
2009-08-21 08:49:30 51°31.993 2°59.058 -999 -999 -999 -999
2009-08-21 08:49:40 51°32.019 2°59.071 -999 -999 -999 -999
2009-08-21 08:49:50 51°32.045 2°59.083 -999 -999 -999 -999
2009-08-21 08:50:00 51°32.07 2°59.095 -999 -999 -999 -999
2009-08-21 08:50:10 51°32.096 2°59.107 -999 -999 -999 -999
2009-08-21 08:50:20 51°32.122 2°59.117 -999 -999 -999 -999
2009-08-21 08:50:30 51°32.149 2°59.126 -999 -999 -999 -999
2009-08-21 08:50:40 51°32.175 2°59.135 -999 -999 -999 -999
2009-08-21 08:50:50 51°32.201 2°59.146 -999 -999 -999 -999
2009-08-21 08:51:00 51°32.228 2°59.154 -999 -999 -999 -999
2009-08-21 08:51:10 51°32.252 2°59.163 -999 -999 -999 -999
2009-08-21 08:51:20 51°32.282 2°59.173 -999 -999 -999 -999
2009-08-21 08:51:30 51°32.307 2°59.181 -999 -999 -999 -999
2009-08-21 08:51:40 51°32.333 2°59.19 -999 -999 -999 -999
2009-08-21 08:51:50 51°32.36 2°59.196 -999 -999 -999 -999
2009-08-21 08:52:00 51°32.388 2°59.202 -999 -999 -999 -999
2009-08-21 08:52:10 51°32.417 2°59.212 -999 -999 -999 -999
2009-08-21 08:52:20 51°32.444 2°59.22 -999 -999 -999 -999
2009-08-21 08:52:30 51°32.471 2°59.229 -999 -999 -999 -999
2009-08-21 08:52:40 51°32.497 2°59.238 -999 -999 -999 -999
2009-08-21 08:52:50 51°32.524 2°59.248 -999 -999 -999 -999
2009-08-21 08:53:00 51°32.552 2°59.254 -999 -999 -999 -999
2009-08-21 08:53:10 51°32.58 2°59.259 -999 -999 -999 -999
2009-08-21 08:53:20 51°32.608 2°59.262 -999 -999 -999 -999
2009-08-21 08:53:30 51°32.636 2°59.265 -999 -999 -999 -999
2009-08-21 08:53:40 51°32.665 2°59.266 -999 -999 -999 -999
2009-08-21 08:53:50 51°32.693 2°59.268 -999 -999 -999 -999
2009-08-21 08:54:00 51°32.721 2°59.269 -999 -999 -999 -999
2009-08-21 08:54:10 51°32.749 2°59.264 -999 -999 -999 -999
2009-08-21 08:54:20 51°32.778 2°59.257 -999 -999 -999 -999
2009-08-21 08:54:30 51°32.806 2°59.249 -999 -999 -999 -999
2009-08-21 08:54:40 51°32.834 2°59.24 -999 -999 -999 -999
2009-08-21 08:54:50 51°32.862 2°59.229 -999 -999 -999 -999
2009-08-21 08:55:00 51°32.89 2°59.216 -999 -999 -999 -999
2009-08-21 08:55:10 51°32.918 2°59.204 -999 -999 -999 -999
2009-08-21 08:55:20 51°32.945 2°59.192 -999 -999 -999 -999
2009-08-21 08:55:30 51°32.972 2°59.178 -999 -999 -999 -999
2009-08-21 08:55:40 51°32.999 2°59.165 -999 -999 -999 -999
2009-08-21 08:55:50 51°33.026 2°59.153 -999 -999 -999 -999
2009-08-21 08:56:00 51°33.053 2°59.141 -999 -999 -999 -999
2009-08-21 08:56:10 51°33.08 2°59.13 -999 -999 -999 -999
2009-08-21 08:56:20 51°33.107 2°59.115 -999 -999 -999 -999
2009-08-21 08:56:30 51°33.134 2°59.102 -999 -999 -999 -999
2009-08-21 08:56:40 51°33.161 2°59.089 -999 -999 -999 -999
2009-08-21 08:56:50 51°33.188 2°59.077 -999 -999 -999 -999
2009-08-21 08:57:00 51°33.215 2°59.063 -999 -999 -999 -999
2009-08-21 08:57:10 51°33.242 2°59.05 -999 -999 -999 -999
2009-08-21 08:57:20 51°33.269 2°59.037 -999 -999 -999 -999
2009-08-21 08:57:30 51°33.296 2°59.025 -999 -999 -999 -999
2009-08-21 08:57:40 51°33.323 2°59.011 -999 -999 -999 -999
2009-08-21 08:57:50 51°33.35 2°58.998 -999 -999 -999 -999
2009-08-21 08:58:00 51°33.377 2°58.986 -999 -999 -999 -999
2009-08-21 08:58:10 51°33.401 2°58.976 -999 -999 -999 -999
2009-08-21 08:58:20 51°33.428 2°58.964 -999 -999 -999 -999
2009-08-21 08:58:30 51°33.455 2°58.951 -999 -999 -999 -999
2009-08-21 08:58:40 51°33.482 2°58.94 -999 -999 -999 -999
2009-08-21 08:58:50 51°33.509 2°58.927 -999 -999 -999 -999
2009-08-21 08:59:00 51°33.536 2°58.915 -999 -999 -999 -999
2009-08-21 08:59:10 51°33.564 2°58.903 -999 -999 -999 -999
2009-08-21 08:59:20 51°33.591 2°58.892 -999 -999 -999 -999
2009-08-21 08:59:30 51°33.618 2°58.879 -999 -999 -999 -999
2009-08-21 08:59:40 51°33.645 2°58.867 -999 -999 -999 -999
2009-08-21 08:59:50 51°33.672 2°58.854 -999 -999 -999 -999
2009-08-21 09:00:00 51°33.7 2°58.842 -999 -999 -999 -999
2009-08-21 09:00:10 51°33.73 2°58.829 -999 -999 -999 -999
2009-08-21 09:00:20 51°33.757 2°58.817 -999 -999 -999 -999
2009-08-21 09:00:30 51°33.784 2°58.804 -999 -999 -999 -999
2009-08-21 09:00:40 51°33.811 2°58.793 -999 -999 -999 -999
2009-08-21 09:00:50 51°33.839 2°58.78 -999 -999 -999 -999
2009-08-21 09:01:00 51°33.866 2°58.766 -999 -999 -999 -999
2009-08-21 09:01:10 51°33.893 2°58.754 -999 -999 -999 -999
2009-08-21 09:01:20 51°33.921 2°58.74 -999 -999 -999 -999
2009-08-21 09:01:30 51°33.948 2°58.726 -999 -999 -999 -999
2009-08-21 09:01:40 51°33.975 2°58.711 -999 -999 -999 -999
2009-08-21 09:01:50 51°34.001 2°58.695 -999 -999 -999 -999
2009-08-21 09:02:00 51°34.028 2°58.681 -999 -999 -999 -999
2009-08-21 09:02:10 51°34.056 2°58.666 -999 -999 -999 -999
2009-08-21 09:02:20 51°34.083 2°58.651 -999 -999 -999 -999
2009-08-21 09:02:30 51°34.109 2°58.634 -999 -999 -999 -999
2009-08-21 09:02:40 51°34.135 2°58.619 -999 -999 -999 -999
2009-08-21 09:02:50 51°34.162 2°58.603 -999 -999 -999 -999
2009-08-21 09:03:00 51°34.189 2°58.587 -999 -999 -999 -999
2009-08-21 09:03:10 51°34.215 2°58.572 -999 -999 -999 -999
2009-08-21 09:03:20 51°34.242 2°58.558 -999 -999 -999 -999
2009-08-21 09:03:30 51°34.269 2°58.542 -999 -999 -999 -999
2009-08-21 09:03:40 51°34.295 2°58.528 -999 -999 -999 -999
2009-08-21 09:03:50 51°34.322 2°58.511 -999 -999 -999 -999
2009-08-21 09:04:00 51°34.349 2°58.496 -999 -999 -999 -999
2009-08-21 09:04:10 51°34.375 2°58.481 -999 -999 -999 -999
2009-08-21 09:04:20 51°34.402 2°58.466 -999 -999 -999 -999
2009-08-21 09:04:30 51°34.429 2°58.449 -999 -999 -999 -999
2009-08-21 09:04:40 51°34.455 2°58.434 -999 -999 -999 -999
2009-08-21 09:04:50 51°34.482 2°58.419 -999 -999 -999 -999
2009-08-21 09:05:00 51°34.508 2°58.403 -999 -999 -999 -999
2009-08-21 09:05:10 51°34.535 2°58.386 -999 -999 -999 -999
2009-08-21 09:05:20 51°34.561 2°58.371 -999 -999 -999 -999
2009-08-21 09:05:30 51°34.588 2°58.355 -999 -999 -999 -999
2009-08-21 09:05:40 51°34.615 2°58.339 -999 -999 -999 -999
2009-08-21 09:05:50 51°34.641 2°58.323 -999 -999 -999 -999
2009-08-21 09:06:00 51°34.668 2°58.306 -999 -999 -999 -999
2009-08-21 09:06:10 51°34.693 2°58.292 -999 -999 -999 -999
2009-08-21 09:06:20 51°34.72 2°58.277 -999 -999 -999 -999
2009-08-21 09:06:30 51°34.745 2°58.26 -999 -999 -999 -999
2009-08-21 09:06:40 51°34.771 2°58.241 -999 -999 -999 -999
2009-08-21 09:06:50 51°34.797 2°58.224 -999 -999 -999 -999
2009-08-21 09:07:00 51°34.824 2°58.208 -999 -999 -999 -999
2009-08-21 09:07:10 51°34.853 2°58.189 -999 -999 -999 -999
2009-08-21 09:07:20 51°34.879 2°58.172 -999 -999 -999 -999
2009-08-21 09:07:30 51°34.906 2°58.155 -999 -999 -999 -999
2009-08-21 09:07:40 51°34.932 2°58.138 -999 -999 -999 -999
2009-08-21 09:07:50 51°34.959 2°58.122 -999 -999 -999 -999
2009-08-21 09:08:00 51°34.985 2°58.106 -999 -999 -999 -999
2009-08-21 09:08:10 51°35.011 2°58.088 -999 -999 -999 -999
2009-08-21 09:08:20 51°35.038 2°58.072 -999 -999 -999 -999
2009-08-21 09:08:30 51°35.064 2°58.056 -999 -999 -999 -999
2009-08-21 09:08:40 51°35.091 2°58.039 -999 -999 -999 -999
2009-08-21 09:08:50 51°35.118 2°58.024 -999 -999 -999 -999
2009-08-21 09:09:00 51°35.145 2°58.007 -999 -999 -999 -999
2009-08-21 09:09:10 51°35.171 2°57.99 -999 -999 -999 -999
2009-08-21 09:09:20 51°35.198 2°57.973 -999 -999 -999 -999
2009-08-21 09:09:30 51°35.225 2°57.957 -999 -999 -999 -999
2009-08-21 09:09:40 51°35.252 2°57.941 -999 -999 -999 -999
2009-08-21 09:09:50 51°35.278 2°57.924 -999 -999 -999 -999
2009-08-21 09:10:00 51°35.305 2°57.908 -999 -999 -999 -999
2009-08-21 09:10:10 51°35.331 2°57.892 -999 -999 -999 -999
2009-08-21 09:10:20 51°35.359 2°57.877 -999 -999 -999 -999
2009-08-21 09:10:30 51°35.386 2°57.863 -999 -999 -999 -999
2009-08-21 09:10:40 51°35.413 2°57.847 -999 -999 -999 -999
2009-08-21 09:10:50 51°35.441 2°57.832 -999 -999 -999 -999
2009-08-21 09:11:00 51°35.468 2°57.816 -999 -999 -999 -999
2009-08-21 09:11:10 51°35.493 2°57.794 -999 -999 -999 -999
2009-08-21 09:11:20 51°35.517 2°57.766 -999 -999 -999 -999
2009-08-21 09:11:30 51°35.538 2°57.733 -999 -999 -999 -999
2009-08-21 09:11:40 51°35.555 2°57.695 -999 -999 -999 -999
2009-08-21 09:11:50 51°35.57 2°57.652 -999 -999 -999 -999
2009-08-21 09:12:00 51°35.581 2°57.604 -999 -999 -999 -999
2009-08-21 09:12:10 51°35.589 2°57.554 -999 -999 -999 -999
2009-08-21 09:12:20 51°35.594 2°57.502 -999 -999 -999 -999
2009-08-21 09:12:30 51°35.596 2°57.448 -999 -999 -999 -999
2009-08-21 09:12:40 51°35.595 2°57.394 -999 -999 -999 -999
2009-08-21 09:12:50 51°35.591 2°57.339 -999 -999 -999 -999
2009-08-21 09:13:00 51°35.584 2°57.285 -999 -999 -999 -999
2009-08-21 09:13:10 51°35.575 2°57.237 -999 -999 -999 -999
2009-08-21 09:13:20 51°35.562 2°57.186 -999 -999 -999 -999
2009-08-21 09:13:30 51°35.546 2°57.136 -999 -999 -999 -999
2009-08-21 09:13:40 51°35.529 2°57.086 -999 -999 -999 -999
2009-08-21 09:13:50 51°35.51 2°57.032 -999 -999 -999 -999
2009-08-21 09:14:00 51°35.491 2°56.982 -999 -999 -999 -999
2009-08-21 09:14:10 51°35.473 2°56.933 -999 -999 -999 -999
2009-08-21 09:14:20 51°35.454 2°56.884 -999 -999 -999 -999
2009-08-21 09:14:30 51°35.434 2°56.836 -999 -999 -999 -999
2009-08-21 09:14:40 51°35.413 2°56.788 -999 -999 -999 -999
2009-08-21 09:14:50 51°35.392 2°56.74 -999 -999 -999 -999
2009-08-21 09:15:00 51°35.372 2°56.692 -999 -999 -999 -999
2009-08-21 09:15:10 51°35.351 2°56.645 -999 -999 -999 -999
2009-08-21 09:15:20 51°35.33 2°56.598 -999 -999 -999 -999
2009-08-21 09:15:30 51°35.309 2°56.551 -999 -999 -999 -999
2009-08-21 09:15:40 51°35.288 2°56.504 -999 -999 -999 -999
2009-08-21 09:15:50 51°35.267 2°56.458 -999 -999 -999 -999
2009-08-21 09:16:00 51°35.248 2°56.415 -999 -999 -999 -999
2009-08-21 09:16:10 51°35.224 2°56.363 -999 -999 -999 -999
2009-08-21 09:16:20 51°35.203 2°56.316 -999 -999 -999 -999
2009-08-21 09:16:30 51°35.182 2°56.269 -999 -999 -999 -999
2009-08-21 09:16:40 51°35.161 2°56.222 -999 -999 -999 -999
2009-08-21 09:16:50 51°35.14 2°56.174 -999 -999 -999 -999
2009-08-21 09:17:00 51°35.12 2°56.127 -999 -999 -999 -999
2009-08-21 09:17:10 51°35.099 2°56.081 -999 -999 -999 -999
2009-08-21 09:17:20 51°35.077 2°56.035 -999 -999 -999 -999
2009-08-21 09:17:30 51°35.057 2°55.987 -999 -999 -999 -999
2009-08-21 09:17:40 51°35.036 2°55.94 -999 -999 -999 -999
2009-08-21 09:17:50 51°35.015 2°55.895 -999 -999 -999 -999
2009-08-21 09:18:00 51°34.994 2°55.848 -999 -999 -999 -999
2009-08-21 09:18:10 51°34.973 2°55.802 -999 -999 -999 -999
2009-08-21 09:18:20 51°34.952 2°55.755 -999 -999 -999 -999
2009-08-21 09:18:30 51°34.931 2°55.708 -999 -999 -999 -999
2009-08-21 09:18:40 51°34.911 2°55.661 -999 -999 -999 -999
2009-08-21 09:18:50 51°34.89 2°55.614 -999 -999 -999 -999
2009-08-21 09:19:00 51°34.871 2°55.566 -999 -999 -999 -999
2009-08-21 09:19:10 51°34.851 2°55.518 -999 -999 -999 -999
2009-08-21 09:19:20 51°34.831 2°55.471 -999 -999 -999 -999
2009-08-21 09:19:30 51°34.81 2°55.424 -999 -999 -999 -999
2009-08-21 09:19:40 51°34.79 2°55.377 -999 -999 -999 -999
2009-08-21 09:19:50 51°34.77 2°55.33 -999 -999 -999 -999
2009-08-21 09:20:00 51°34.749 2°55.283 -999 -999 -999 -999
2009-08-21 09:20:10 51°34.728 2°55.236 -999 -999 -999 -999
2009-08-21 09:20:20 51°34.706 2°55.189 -999 -999 -999 -999
2009-08-21 09:20:30 51°34.686 2°55.141 -999 -999 -999 -999
2009-08-21 09:20:40 51°34.665 2°55.094 -999 -999 -999 -999
2009-08-21 09:20:50 51°34.645 2°55.047 -999 -999 -999 -999
2009-08-21 09:21:00 51°34.625 2°54.999 -999 -999 -999 -999
2009-08-21 09:21:10 51°34.606 2°54.951 -999 -999 -999 -999
2009-08-21 09:21:20 51°34.586 2°54.903 -999 -999 -999 -999
2009-08-21 09:21:30 51°34.566 2°54.855 -999 -999 -999 -999
2009-08-21 09:21:40 51°34.545 2°54.807 -999 -999 -999 -999
2009-08-21 09:21:50 51°34.524 2°54.76 -999 -999 -999 -999
2009-08-21 09:22:00 51°34.504 2°54.712 -999 -999 -999 -999
2009-08-21 09:22:10 51°34.483 2°54.665 -999 -999 -999 -999
2009-08-21 09:22:20 51°34.463 2°54.617 -999 -999 -999 -999
2009-08-21 09:22:30 51°34.443 2°54.569 -999 -999 -999 -999
2009-08-21 09:22:40 51°34.423 2°54.523 -999 -999 -999 -999
2009-08-21 09:22:50 51°34.403 2°54.475 -999 -999 -999 -999
2009-08-21 09:23:00 51°34.382 2°54.428 -999 -999 -999 -999
2009-08-21 09:23:10 51°34.363 2°54.385 -999 -999 -999 -999
2009-08-21 09:23:20 51°34.343 2°54.337 -999 -999 -999 -999
2009-08-21 09:23:30 51°34.322 2°54.289 -999 -999 -999 -999
2009-08-21 09:23:40 51°34.302 2°54.241 -999 -999 -999 -999
2009-08-21 09:23:50 51°34.281 2°54.192 -999 -999 -999 -999
2009-08-21 09:24:00 51°34.261 2°54.144 -999 -999 -999 -999
2009-08-21 09:24:10 51°34.239 2°54.092 -999 -999 -999 -999
2009-08-21 09:24:20 51°34.218 2°54.044 -999 -999 -999 -999
2009-08-21 09:24:30 51°34.197 2°53.997 -999 -999 -999 -999
2009-08-21 09:24:40 51°34.178 2°53.955 -999 -999 -999 -999
2009-08-21 09:24:50 51°34.156 2°53.903 -999 -999 -999 -999
2009-08-21 09:25:00 51°34.136 2°53.855 -999 -999 -999 -999
2009-08-21 09:25:10 51°34.117 2°53.806 -999 -999 -999 -999
2009-08-21 09:25:20 51°34.097 2°53.758 -999 -999 -999 -999
2009-08-21 09:25:30 51°34.077 2°53.71 -999 -999 -999 -999
2009-08-21 09:25:40 51°34.056 2°53.662 -999 -999 -999 -999
2009-08-21 09:25:50 51°34.035 2°53.615 -999 -999 -999 -999
2009-08-21 09:26:00 51°34.015 2°53.566 -999 -999 -999 -999
2009-08-21 09:26:10 51°33.995 2°53.517 -999 -999 -999 -999
2009-08-21 09:26:20 51°33.977 2°53.467 -999 -999 -999 -999
2009-08-21 09:26:30 51°33.959 2°53.417 -999 -999 -999 -999
2009-08-21 09:26:40 51°33.94 2°53.368 -999 -999 -999 -999
2009-08-21 09:26:50 51°33.922 2°53.318 -999 -999 -999 -999
2009-08-21 09:27:00 51°33.903 2°53.268 -999 -999 -999 -999
2009-08-21 09:27:10 51°33.886 2°53.217 -999 -999 -999 -999
2009-08-21 09:27:20 51°33.873 2°53.165 -999 -999 -999 -999
2009-08-21 09:27:30 51°33.863 2°53.111 -999 -999 -999 -999
2009-08-21 09:27:40 51°33.858 2°53.057 -999 -999 -999 -999
2009-08-21 09:27:50 51°33.857 2°53.003 -999 -999 -999 -999
2009-08-21 09:28:00 51°33.86 2°52.95 -999 -999 -999 -999
2009-08-21 09:28:10 51°33.869 2°52.9 -999 -999 -999 -999
2009-08-21 09:28:20 51°33.882 2°52.855 -999 -999 -999 -999
2009-08-21 09:28:30 51°33.9 2°52.818 -999 -999 -999 -999
2009-08-21 09:28:40 51°33.922 2°52.787 -999 -999 -999 -999
2009-08-21 09:28:50 51°33.946 2°52.761 -999 -999 -999 -999
2009-08-21 09:29:00 51°33.97 2°52.733 -999 -999 -999 -999
2009-08-21 09:29:10 51°33.993 2°52.704 -999 -999 -999 -999
2009-08-21 09:29:20 51°34.017 2°52.673 -999 -999 -999 -999
2009-08-21 09:29:30 51°34.04 2°52.64 -999 -999 -999 -999
2009-08-21 09:29:40 51°34.063 2°52.608 -999 -999 -999 -999